TimeMST,TemperatureF,Dew PointF,Humidity,Sea Level PressureIn,VisibilityMPH,Wind Direction,Wind SpeedMPH,Gust SpeedMPH,PrecipitationIn,Events,Conditions,WindDirDegrees,DateUTC
12:53 AM,21.9,15.1,75,29.64,10.0,NW,5.8,-,0.00,,Overcast,320,2012-12-15 07:53:00
1:53 AM,21.9,15.1,75,29.64,10.0,North,8.1,-,N/A,,Overcast,360,2012-12-15 08:53:00
2:38 AM,21.2,15.8,80,29.76,10.0,North,10.4,-,N/A,,Overcast,10,2012-12-15 09:38:00
2:53 AM,21.9,15.1,75,29.67,10.0,North,10.4,-,N/A,,Mostly Cloudy,360,2012-12-15 09:53:00
3:01 AM,21.2,15.8,80,29.77,10.0,North,12.7,-,N/A,,Mostly Cloudy,360,2012-12-15 10:01:00
3:53 AM,21.9,14.0,72,29.65,10.0,North,15.0,-,N/A,,Clear,360,2012-12-15 10:53:00
4:53 AM,19.0,12.9,77,29.65,10.0,Calm,Calm,-,N/A,,Clear,0,2012-12-15 11:53:00
5:53 AM,14.0,10.0,84,29.71,10.0,Variable,3.5,-,N/A,,Clear,0,2012-12-15 12:53:00
6:53 AM,12.9,9.0,84,29.72,10.0,ENE,4.6,-,N/A,,Clear,70,2012-12-15 13:53:00
7:53 AM,12.0,10.0,92,29.72,10.0,Calm,Calm,-,N/A,,Clear,0,2012-12-15 14:53:00
8:53 AM,16.0,12.0,84,29.70,10.0,SE,4.6,-,N/A,,Mostly Cloudy,140,2012-12-15 15:53:00
9:53 AM,16.0,12.9,88,29.71,10.0,South,5.8,-,N/A,,Overcast,190,2012-12-15 16:53:00
10:53 AM,21.9,14.0,72,29.67,10.0,Calm,Calm,-,N/A,,Overcast,0,2012-12-15 17:53:00
11:21 AM,19.4,14.0,80,29.77,2.5,SW,3.5,-,0.00,Snow,Light Snow,220,2012-12-15 18:21:00
11:29 AM,19.4,15.8,86,29.76,1.0,Calm,Calm,-,0.00,Snow,Light Snow,0,2012-12-15 18:29:00
11:36 AM,19.4,15.8,86,29.76,0.5,Calm,Calm,-,0.01,Fog-Snow,Snow,0,2012-12-15 18:36:00
11:43 AM,19.4,15.8,86,29.76,0.5,Calm,Calm,-,0.01,Fog-Snow,Snow,0,2012-12-15 18:43:00
11:53 AM,19.9,16.0,85,29.68,0.5,Calm,Calm,-,0.02,Fog-Snow,Light Snow,0,2012-12-15 18:53:00
12:10 PM,21.2,15.8,80,29.74,1.2,North,4.6,-,0.00,Snow,Light Snow,10,2012-12-15 19:10:00
12:14 PM,21.2,15.8,80,29.74,3.0,North,3.5,-,0.00,Snow,Light Snow,10,2012-12-15 19:14:00
12:28 PM,23.0,15.8,74,29.73,10.0,Calm,Calm,-,0.00,,Overcast,0,2012-12-15 19:28:00
12:45 PM,21.2,15.8,80,29.73,2.5,Calm,Calm,-,0.00,Snow,Light Snow,0,2012-12-15 19:45:00
12:53 PM,23.0,17.1,78,29.62,2.0,Calm,Calm,-,0.00,Snow,Light Snow,0,2012-12-15 19:53:00
1:05 PM,21.2,15.8,80,29.73,5.0,Calm,Calm,-,0.00,Snow,Light Snow,0,2012-12-15 20:05:00
1:16 PM,23.0,17.6,80,29.73,1.5,North,6.9,-,0.00,Snow,Light Snow,360,2012-12-15 20:16:00
1:45 PM,21.2,15.8,80,29.72,3.0,WNW,10.4,-,0.01,Snow,Light Snow,300,2012-12-15 20:45:00
1:53 PM,21.9,12.9,68,29.63,3.0,West,4.6,-,0.01,Snow,Light Snow,260,2012-12-15 20:53:00
2:29 PM,23.0,14.0,68,29.72,1.8,NW,5.8,-,0.00,Snow,Light Snow,320,2012-12-15 21:29:00
2:34 PM,23.0,14.0,68,29.72,2.0,NW,4.6,-,0.00,Snow,Light Snow,320,2012-12-15 21:34:00
2:42 PM,23.0,12.2,63,29.72,8.0,North,5.8,-,0.00,,Mostly Cloudy,350,2012-12-15 21:42:00
2:53 PM,21.9,12.0,66,29.63,10.0,NW,9.2,-,0.00,,Overcast,320,2012-12-15 21:53:00
3:53 PM,19.9,12.9,74,29.65,10.0,NNW,5.8,-,N/A,,Overcast,340,2012-12-15 22:53:00
4:53 PM,18.0,10.0,71,29.67,10.0,North,4.6,-,N/A,,Overcast,350,2012-12-15 23:53:00
5:53 PM,14.0,8.1,77,29.73,10.0,NE,4.6,-,N/A,,Scattered Clouds,50,2012-12-16 00:53:00
6:53 PM,12.0,7.0,80,29.74,10.0,NE,4.6,-,N/A,,Clear,40,2012-12-16 01:53:00
7:53 PM,9.0,5.0,84,29.76,10.0,NNE,4.6,-,N/A,,Clear,30,2012-12-16 02:53:00
8:53 PM,7.0,3.0,84,29.75,10.0,NNE,3.5,-,N/A,,Overcast,20,2012-12-16 03:53:00
9:53 PM,5.0,1.9,87,29.76,10.0,ENE,5.8,-,N/A,,Partly Cloudy,60,2012-12-16 04:53:00
10:53 PM,3.9,1.0,88,29.73,10.0,NNW,3.5,-,N/A,,Clear,340,2012-12-16 05:53:00
11:53 PM,7.0,3.0,84,29.71,10.0,NE,10.4,-,N/A,,Mostly Cloudy,50,2012-12-16 06:53:00